Location: Stoke Ferry
(52.5667°N, 0.5167°E)
Time: 10:52:18
(UTC+00:00)

Daily predictions for brighter satellites

Satellite Brightness Start Highest point End
(mag) Time Altitude Azimuth Time Altitude Azimuth Time Altitude Azimuth
Cosmos 990 Rocket 4.3 19:17:46 10° SSW 19:22:55 76° WNW 19:28:05 10° NNE
CZ-4B R/B 3.6 19:20:47 10° SSE 19:24:21 66° ENE 19:28:04 10° N
Cosmos 2074 Rocket 4.0 19:18:29 10° S 19:24:37 64° E 19:30:48 10° NNE
Meteor 1-31 Rocket 2.5 19:23:30 10° SSE 19:26:59 67° ENE 19:30:31 10° N
Cosmos 1937 Rocket 4.1 19:22:32 10° SSE 19:27:20 36° ESE 19:32:09 10° NE
SL-24 R/B - RUBIN 2 3.8 19:26:13 10° NW 19:30:33 59° NE 19:35:04 10° ESE
Cosmos 2369 Rocket 4.4 19:29:46 10° NNW 19:32:31 14° NNE 19:35:15 10° NE
Cosmos 923 Rocket 4.1 19:27:13 10° NNW 19:32:33 66° ENE 19:37:47 10° SE
Cosmos 2112 Rocket 4.5 19:29:00 10° NNW 19:34:03 45° NE 19:39:00 10° SE
USA 234 3.3 19:28:38 10° ENE 19:35:09 63° SE 19:41:39 10° SW
NOSS 2-3 (E) 4.2 19:31:14 10° NW 19:35:55 70° NE 19:42:12 10° SE
USA 238 DEB 4.5 19:30:12 10° NW 19:37:00 48° NNE 19:44:29 10° E
COSMOS 2428 3.9 19:34:39 10° SE 19:38:40 20° E 19:42:41 10° NE
NOSS 2-3 (C) 4.3 19:34:49 10° NW 19:39:22 61° NE 19:45:27 11° ESE
IRAS Rocket 4.4 19:34:57 10° SSE 19:40:29 78° WSW 19:46:00 10° NNW
Cosmos 1953 2.1 19:37:15 10° SSW 19:40:50 81° WNW 19:44:28 10° N
Meteor 1-15 Rocket 4.2 19:35:36 10° S 19:41:07 75° E 19:46:43 10° NNE
PAYLOAD B 4.3 19:36:01 10° SSE 19:41:29 68° ENE 19:46:57 10° NNW
CZ-4B R/B 3.4 19:36:36 10° SE 19:42:01 58° ENE 19:47:32 10° N
MetOp-B 4.3 19:37:09 10° SE 19:42:23 58° ENE 19:47:40 10° N
CZ-4B DEB 4.2 19:37:09 10° SSE 19:42:36 77° ENE 19:48:06 10° NNW
Cosmos 2278 Rocket 3.1 19:37:38 10° NNW 19:42:51 35° NE 19:47:49 11° ESE
CSL-04 Rocket 3.9 19:37:24 10° SSE 19:42:57 78° WSW 19:48:33 10° NNW
COBE Rocket 4.3 19:38:26 10° N 19:43:21 73° WNW 19:48:21 10° SSW
NOSS 3-2 (C) 4.1 19:40:42 10° NW 19:47:45 89° SW 19:56:22 10° SE
Cosmos 2333 Rocket 2.7 19:43:52 10° SW 19:49:30 66° NW 19:55:10 10° NNE
Cosmos 1703 Rocket 3.5 19:48:36 10° N 19:52:58 82° ENE 19:57:16 10° SSE
Geosat 4.2 19:49:26 10° NE 19:54:20 50° ESE 19:59:10 10° S
BREEZE-M DEB (TANK) 2.1 19:53:31 10° WSW 19:55:53 50° S 19:59:33 12° E
Meteor 2-5 Rocket 4.3 19:52:20 10° NNW 19:57:46 59° W 20:03:11 10° S
NOSS 2-3 (D) 4.1 19:53:28 10° NW 19:58:15 87° NE 20:03:54 13° SE
Cosmos 1470 Rocket 3.6 19:53:58 10° S 19:58:21 89° WNW 20:02:44 10° N
Spot 2 Rocket 4.0 19:53:55 11° SE 19:58:24 44° ENE 20:03:09 10° N
Lacrosse 5 rocket 1.9 19:56:39 10° S 19:59:10 22° SE 20:00:40 16° E
ARIANE 6 FM1 Upper Stage 2.5 19:56:29 10° SW 20:00:33 66° SE 20:04:34 10° NE
CZ-2C R/B 4.4 20:00:39 10° ENE 20:01:27 11° ENE 20:02:23 10° NE
Nadezhda 3 Rocket 4.3 19:56:57 10° NNW 20:03:08 71° W 20:09:13 10° S
ERS-1 Rocket 2.9 19:58:59 10° SSE 20:03:59 87° ENE 20:09:01 10° NNW
Cosmos 1933 Rocket 3.7 20:01:34 10° S 20:05:48 53° E 20:10:07 10° NNE
Cosmos 1943 Rocket 2.5 20:03:03 10° NNW 20:08:40 56° NE 20:12:59 17° SE
Helios 1A Rocket 2.4 20:07:21 10° NNE 20:10:36 77° WNW 20:13:49 10° SSW
Cosmos 2218 Rocket 4.4 20:06:42 10° SSE 20:12:20 40° E 20:18:00 10° NNE
In-Cosmos 22 Rocket 4.1 20:08:47 10° N 20:14:10 72° ENE 20:19:03 12° SSE
USA 59 Rocket 1.1 20:12:27 10° NNW 20:14:58 23° NNE 20:17:17 13° ENE
Meteor 1-12 Rocket 4.3 20:09:20 10° S 20:15:18 73° E 20:21:19 10° NNE
MOS 1-B 4.4 20:14:20 14° SSE 20:19:22 67° ENE 20:25:07 10° NNW
Cosmos 1733 Rocket 4.2 20:18:20 20° ESE 20:19:45 24° E 20:23:15 10° NE
Cosmos 2154 Rocket 4.5 20:13:53 10° SSW 20:20:09 66° WNW 20:26:30 10° N
Aureole 1 Rocket 4.3 20:18:49 10° WSW 20:21:40 30° WNW 20:24:23 10° N
Cosmos 494 Rocket 4.0 20:17:06 10° NNW 20:22:18 89° WSW 20:26:29 16° SSE
CZ-4B R/B 4.1 20:20:21 20° ESE 20:23:10 36° ENE 20:27:33 10° N
SeaSat 1 4.0 20:19:54 13° E 20:23:15 25° NE 20:27:10 10° NNW
Okean-O 2.6 20:20:36 18° SSE 20:23:45 63° ENE 20:28:06 10° N
ATLAS 3B R/B 3.5 20:17:09 10° WSW 20:24:52 64° NW 20:32:43 10° NE
Cosmos 1048 Rocket 4.2 20:21:39 10° NNW 20:26:42 56° ENE 20:29:52 22° SE
USA 229 DEB 4.4 20:20:57 10° WSW 20:27:03 53° NNW 20:34:01 10° NE
USA 229 4.4 20:20:59 10° WSW 20:27:06 54° NNW 20:34:04 10° NE
Cosmos 962 Rocket 4.4 20:21:36 10° S 20:27:49 73° E 20:34:01 10° NNE
Cosmos 2360 Rocket 3.0 20:22:51 10° SW 20:28:23 55° NW 20:33:57 10° NNE
Timation 2 Rocket 4.1 20:25:53 10° NNW 20:32:04 64° NE 20:36:19 22° SE
Cosmos 1869 Rocket 3.4 20:31:25 10° S 20:35:46 74° E 20:40:11 10° NNE
Cosmos 2322 Rocket 3.3 20:31:03 10° WSW 20:36:27 46° NW 20:41:52 10° NNE
Aureole 3 4.0 20:34:11 10° N 20:38:02 44° ENE 20:40:03 27° SE
ADEOS 4.1 20:33:14 10° S 20:38:22 59° WSW 20:43:32 10° NNW
Terra 2.5 20:34:42 10° S 20:39:17 53° W 20:43:54 10° NNW
CZ-4 R/B 3.4 20:37:41 10° SSW 20:40:49 24° W 20:43:56 10° NW
NOSS 2-1 (D) 4.3 20:38:18 10° NNW 20:41:04 29° NNE 20:42:33 21° ENE
ATLAS 5 CENTAUR R/B 3.7 20:41:40 10° NW 20:43:50 16° N 20:46:12 10° NNE
Cosmos 2242 Rocket 3.7 20:39:50 10° N 20:44:19 58° ENE 20:46:21 30° SE
SL-16 R/B 4.3 20:39:53 10° WSW 20:44:50 30° NW 20:49:49 10° NNE
SL-08 R/B 3.3 20:41:57 10° NNE 20:46:52 89° ESE 20:51:47 10° SSW
Okean O Rocket 1.7 20:43:57 20° S 20:46:55 77° WSW 20:51:17 10° NNW
Cosmos 1025 Rocket 4.0 20:44:38 10° N 20:48:26 31° ENE 20:49:24 27° E
Cosmos 2237 Rocket 3.0 20:47:31 27° SE 20:48:38 29° ESE 20:53:26 10° NE
Cosmos 1980 4.4 20:47:57 27° SE 20:49:25 31° ESE 20:54:18 10° NE
Cosmos 2322 3.6 20:46:42 10° SSW 20:52:22 69° ESE 20:58:05 10° NE
CZ-4B R/B 2.6 20:51:35 42° SE 20:52:37 63° ENE 20:56:07 10° N
ASTEX 1 3.4 20:50:47 28° SSE 20:53:13 62° E 20:58:05 10° N
Cosmos 2341 Rocket 4.0 20:48:21 10° S 20:54:36 86° E 21:00:56 10° N
Meteor 1-21 Rocket 4.3 20:51:28 10° NNW 20:57:03 76° W 21:01:08 20° S
Cosmos 864 Rocket 4.4 20:53:03 10° S 20:59:19 87° ESE 21:05:36 10° N
Cosmos 1400 Rocket 3.5 21:03:02 32° ENE 21:03:02 32° ENE 21:05:44 10° NNE
USA 186 2.8 21:04:43 25° W 21:04:43 25° W 21:06:23 10° NW
SPOT 3 Rocket 3.5 21:02:10 31° SSE 21:04:44 79° ENE 21:09:57 10° NNW
Cosmos 2219 Rocket 3.2 20:59:28 10° SW 21:04:51 48° NW 21:10:18 10° NNE
Meteor 2-21 Rocket 4.4 21:05:49 10° N 21:11:56 72° ENE 21:14:50 33° SSE
USA 234 3.5 21:11:46 10° ENE 21:18:17 72° NNW 21:24:49 10° W
Cosmos 2369 Rocket 3.4 21:13:27 10° NNW 21:18:25 31° NE 21:20:57 22° E
USA 245 3.6 21:17:15 41° S 21:18:33 69° W 21:23:15 10° NNW
Cosmos 1674 Rocket 3.5 21:14:51 10° N 21:19:09 67° ENE 21:19:57 53° SE
SL-8 Rocket 4.4 21:15:54 10° SSW 21:22:04 63° WNW 21:28:20 10° N
COSMOS 2428 2.7 21:16:26 10° SSW 21:22:11 86° WNW 21:27:58 10° NNE
Helios 1B rocket 3.8 21:23:49 21° NE 21:23:49 21° NE 21:26:12 10° NNE
NOSS 0 Rocket 3.8 21:18:57 10° SSW 21:25:10 71° ESE 21:31:23 10° NE
Cosmos 1727 Rocket 4.0 21:19:00 10° N 21:25:24 90° WSW 21:28:33 33° S
Cosmos 2278 Rocket 2.6 21:21:39 10° NW 21:27:14 58° WSW 21:29:39 33° S
USA 238 DEB 4.0 21:21:13 10° NW 21:28:30 76° SW 21:32:16 35° SSE
Ariane Rocket 2.9 21:26:52 42° S 21:28:39 85° WSW 21:33:43 10° NNW
USA 238 4.0 21:21:23 10° NW 21:28:41 76° SW 21:32:26 35° SSE
Cosmos 2221 Rocket 3.7 21:25:28 10° N 21:29:47 53° ENE 21:30:11 51° E
Cosmos 1346 Rocket 2.7 21:28:12 10° N 21:31:34 62° NE 21:31:34 62° NE
CZ-2C R/B 2.9 21:32:30 49° WNW 21:32:30 49° WNW 21:34:55 10° NNW
Cosmos 2366 rocket 4.5 21:26:04 10° SSW 21:32:08 58° WNW 21:38:13 10° N
Lacrosse 5 rocket 2.2 21:32:20 10° WSW 21:34:04 29° WSW 21:34:04 29° WSW
Cosmos 1378 Rocket 4.0 21:34:43 10° NNW 21:39:04 57° W 21:40:16 41° SSW
ARIANE 6 FM1 Upper Stage 4.3 21:36:06 10° W 21:39:49 33° NNW 21:43:30 10° NE
DNEPR-1 R/B 4.1 21:45:57 42° ENE 21:45:57 42° ENE 21:49:06 10° NE
Cosmos 1656 Rocket 3.6 21:43:38 10° NNW 21:49:06 76° ENE 21:50:17 55° SE
Meteor 2-8 Rocket 4.3 21:47:10 40° S 21:49:33 83° E 21:55:39 10° NNE
Cosmos 1943 Rocket 3.4 21:47:09 10° NW 21:52:10 33° WSW 21:54:29 24° SSW
Cosmos 614 Rocket 4.2 21:47:43 10° NNW 21:52:51 61° WSW 21:53:59 48° SSW
SL-16 R/B 3.5 21:58:05 25° E 21:58:05 25° E 22:01:24 10° NE
Cosmos 1733 Rocket 4.0 21:55:13 27° SW 21:57:09 44° WNW 22:01:23 10° N
SeaSat 1 2.3 21:59:30 68° SSE 22:00:09 88° WSW 22:05:05 10° NNW
CZ-4B R/B 4.5 22:00:11 29° SW 22:01:48 37° W 22:06:16 10° NNW
Cosmos 2123 Rocket 3.9 21:55:42 10° N 22:01:59 87° W 22:03:50 49° S
USA 59 Rocket 0.5 22:00:30 10° NW 22:02:49 43° WNW 22:02:49 43° WNW
Cosmos 1934 Rocket 3.9 22:03:44 52° SSE 22:05:16 72° E 22:11:31 10° NNE
Cosmos 1140 Rocket 4.4 22:03:06 10° NNW 22:07:53 36° NE 22:08:44 34° ENE
NOSS 3-4 (A) 3.0 22:10:28 46° SSW 22:12:08 80° SE 22:18:07 10° NE
NOSS 3-4 (C) 3.0 22:11:02 48° SSW 22:12:38 80° SE 22:18:39 10° NE
Cosmos 1300 Rocket 4.1 22:17:13 47° NE 22:17:13 47° NE 22:20:29 10° NNE
ATLAS 3B R/B 4.4 22:09:48 10° WNW 22:17:03 38° N 22:24:16 10° ENE
Cosmos 2285 Rocket 4.2 22:19:16 50° ESE 22:19:26 50° ESE 22:25:32 10° NNE
Okean O Rocket 4.3 22:22:43 10° W 22:23:51 11° W 22:24:59 10° WNW
NOSS 3-1 (C) 4.0 22:19:00 10° NW 22:25:32 69° NE 22:28:44 39° ESE
Cosmos 1025 Rocket 4.2 22:22:04 10° NNW 22:25:52 33° W 22:26:07 32° W
ATLAS 5 CENTAUR R/B 3.7 22:24:35 10° NNW 22:27:10 18° NNE 22:29:34 12° NE
SME Rocket 4.5 22:21:17 10° NNE 22:27:17 84° WNW 22:32:12 29° SSW
Cosmos 1535 Rocket 4.4 22:26:51 62° SE 22:27:29 66° E 22:33:33 10° NNE
RESURS DK-1 3.9 22:30:06 27° NE 22:30:06 27° NE 22:32:02 10° NE
ALOS 2 3.7 22:29:40 35° NE 22:29:40 35° NE 22:33:17 10° N
Cosmos 2237 Rocket 2.6 22:29:12 27° SW 22:32:18 63° NW 22:37:59 10° NNE
Cosmos 1125 Rocket 3.8 22:31:27 45° WSW 22:32:54 63° WNW 22:38:09 10° NNE
Cosmos 1980 4.2 22:29:38 23° SW 22:33:10 59° NW 22:38:46 10° NNE
Cosmos 1605 Rocket 3.8 22:32:45 64° SE 22:33:17 68° E 22:39:22 10° NNE
Cosmos 1269 Rocket 4.4 22:31:44 10° NNW 22:36:55 53° ENE 22:37:13 52° ENE
Cosmos 2297 3.6 22:31:09 10° NNW 22:36:57 77° ENE 22:37:29 71° ESE
TSX-5 4.4 22:38:07 65° NNW 22:38:07 65° NNW 22:41:55 10° NNE
ARIANE 5 R/B 3.3 22:40:11 47° NE 22:40:11 47° NE 22:43:43 10° N
Cosmos 1975 Rocket 3.4 22:37:44 10° N 22:41:32 64° NNW 22:41:32 64° NNW
COSMOS 2455 3.9 22:37:14 10° NNW 22:42:53 40° NE 22:45:15 29° E
Cosmos 2150 Rocket 4.1 22:54:11 64° NE 22:54:11 64° NE 22:58:39 10° NNE
Helios 1B rocket 4.1 22:57:49 25° NW 22:57:49 25° NW 22:59:39 10° NNW
USA 234 3.6 22:54:35 10° E 23:01:02 62° N 23:07:28 10° WNW
Cosmos 371 Rocket 4.4 22:58:01 10° NNW 23:02:30 36° NE 23:02:35 36° NE
Cosmos 2369 Rocket 2.2 22:57:19 10° NW 23:02:43 67° WSW 23:02:43 67° WSW
Cosmos 1782 Rocket 4.4 23:08:26 46° NW 23:08:26 46° NW 23:11:58 10° N
Helios 1A 4.2 23:05:28 10° N 23:08:37 37° NW 23:08:37 37° NW
Cosmos 2263 4.1 23:03:39 10° NNW 23:09:06 76° W 23:09:06 76° W
Spot 4 4.2 23:16:25 62° NW 23:16:25 62° NW 23:20:26 10° NNW
NOSS 3-1 (A) 4.1 23:10:05 10° NW 23:16:41 68° NE 23:19:58 38° ESE
Cosmos 2058 4.4 23:14:44 10° NNW 23:17:08 33° NW 23:17:08 33° NW
Cosmos 1943 4.0 23:21:35 40° ENE 23:21:35 40° ENE 23:25:47 10° NE
CZ-2C R/B 4.4 23:27:18 10° N 23:30:43 51° N 23:30:43 51° N
SJ 16-02 2.6 23:30:04 10° NNW 23:33:16 37° NNE 23:33:16 37° NNE
Cosmos 407 Rocket 3.7 23:29:44 10° NNW 23:34:21 68° N 23:34:21 68° N
Cosmos 1153 Rocket 4.4 23:36:24 73° WSW 23:36:50 76° WNW 23:43:06 10° N
ACS3 Solar Sail 3.7 23:36:06 10° NE 23:39:29 15° E 23:40:25 15° E
SL-16 R/B 2.4 23:39:53 61° W 23:40:22 64° NW 23:46:02 10° NNE
Cosmos 1802 Rocket 4.1 23:43:35 60° ESE 23:43:47 60° E 23:49:59 10° NNE
CZ-2C R/B 2.9 23:44:18 64° ENE 23:44:22 64° ENE 23:49:50 10° N
Meteor 2-3 Rocket 3.7 23:40:25 10° NNW 23:45:50 81° NNE 23:45:50 81° NNE
Cosmos 921 Rocket 4.3 23:42:00 10° NNW 23:44:53 37° NW 23:44:53 37° NW
Cosmos 1725 Rocket 4.1 23:48:08 60° ESE 23:48:19 60° E 23:54:33 10° NNE
Cosmos 1140 Rocket 4.4 23:44:48 10° NW 23:48:38 39° WNW 23:48:38 39° WNW
